Location: Sihaung
(22.8641°N, 94.0549°E)
Time: 03:03:13
(UTC+00:00)

Cosmos 2322 - Pass Details

Date: 03 March 2021
Orbit: 841 x 853 km, 71.0° (Epoch: 13 April)

Event Time Altitude Azimuth Distance (km) Brightness Sun altitude
Rises 12:48:06 0° 194° (SSW) 3,404 7.0 -14.6°
Reaches altitude 10° 12:50:32 10° 192° (SSW) 2,471 6.3 -15.2°
Maximum altitude 12:56:12 79° 107° (ESE) 870 3.6 -16.5°
Drops below altitude 10° 13:01:55 10° 21° (NNE) 2,481 5.9 -17.8°
Sets 13:04:22 0° 20° (NNE) 3,418 6.7 -18.4°
